CAPE
0 0 0 1 1 1 0 0 0 0 1 1 1 2 2 2 1 1 1 1 4 2 0 0 0 0 0 0 0 0 0 0 0 0 0 0 0 0 0 0 0 0 21 81 38 59 120
1 1 0 0 0 0 0 0 0 0 1 1 1 1 1 0 0 0 0 1 0 0 1 1 1 0 0 0 0 0 0 0 0 0 0 0 0 0 0 0 2 10 80 71 167 80 136
1 1 0 0 0 0 0 0 0 0 0 1 1 0 0 1 0 1 1 1 1 0 2 1 0 0 0 0 0 0 0 0 0 0 0 0 0 0 0 0 1 113 68 226 158 88 97
1 1 1 0 0 0 0 0 0 0 0 1 1 1 1 0 0 0 0 1 0 1 0 1 0 0 0 0 0 0 0 0 0 0 0 0 0 0 0 0 0 77 12 77 219 100 76
2 1 1 2 0 0 0 0 0 0 0 0 0 0 1 0 0 0 0 0 0 1 1 0 0 0 0 0 0 0 0 0 0 0 0 0 0 0 0 0 6 2 14 54 151 169 94
3 0 1 1 1 0 0 0 0 0 0 0 0 0 0 0 0 0 0 0 1 1 0 0 0 0 0 0 0 0 0 0 0 0 0 0 0 0 0 0 0 0 12 111 5 72 152
1 1 1 2 2 0 0 0 0 0 0 0 0 0 0 0 0 0 0 0 0 0 0 0 0 0 0 0 0 0 0 0 0 0 0 0 0 0 0 0 0 0 0 46 206 113 111
3 1 1 0 1 1 0 0 0 0 0 0 0 0 0 0 0 0 0 0 0 0 0 0 0 0 0 0 0 0 0 0 0 0 0 0 0 0 0 0 0 83 102 101 109 29 29
3 2 1 2 2 1 0 0 0 0 0 0 0 0 0 0 0 0 0 0 0 0 0 0 0 0 0 0 0 0 0 0 0 0 0 0 0 0 0 0 0 0 0 99 140 65 44
3 3 2 2 2 1 0 0 0 0 0 0 0 0 0 0 0 0 0 0 0 0 0 0 0 0 0 0 0 0 0 0 0 0 0 0 0 0 0 0 0 0 0 121 90 21 0
2 2 2 2 2 2 0 0 0 0 0 0 0 0 0 0 0 0 0 0 0 0 0 0 0 0 0 0 0 0 0 0 0 0 0 0 0 0 0 0 0 0 0 9 136 52 67
1 0 2 2 1 2 0 0 0 0 0 0 0 0 0 0 0 0 0 0 0 0 0 0 0 0 0 0 0 0 0 0 0 0 0 0 0 0 0 0 0 1 28 87 78 20 0
2 2 2 2 1 1 0 0 0 0 0 0 0 0 0 0 0 0 0 0 0 0 0 0 0 0 0 0 0 0 0 0 0 0 0 0 0 0 0 0 0 0 3 0 0 0 0
1 2 1 1 1 2 0 0 0 0 0 0 0 0 0 0 0 0 0 0 0 0 0 0 0 0 0 0 0 0 0 0 0 0 0 0 0 0 0 0 0 0 0 3 0 0 0
2 2 1 1 2 0 0 0 0 0 0 0 0 0 0 0 0 0 0 0 0 0 0 0 0 0 0 0 0 0 0 0 0 0 0 0 0 0 0 0 0 0 0 0 1 0 1
1 2 1 0 1 0 0 0 0 0 0 0 0 0 0 0 0 0 0 0 0 0 0 0 0 0 0 0 0 0 0 0 0 0 0 0 0 0 0 0 0 0 0 0 0 0 0
2 1 1 0 1 0 0 0 0 0 0 0 0 0 0 0 0 0 0 0 0 0 0 0 0 0 0 0 10 12 0 0 0 0 0 0 0 0 0 0 0 0 0 0 0 0 10
1 0 1 1 1 1 0 0 0 0 0 0 0 0 0 0 0 0 0 0 0 0 0 0 0 0 0 0 11 24 0 0 0 0 0 0 0 0 0 0 0 0 0 0 0 0 0
1 1 1 1 1 2 0 0 0 0 0 0 0 0 0 0 0 0 0 0 0 0 0 0 0 0 0 0 2 34 13 21 6 0 0 0 0 0 0 0 0 0 0 0 0 0 0
1 1 1 1 0 1 0 0 0 0 0 0 0 0 0 0 0 0 0 0 0 0 0 0 0 0 0 0 0 5 5 13 0 0 0 0 0 0 0 2 0 0 0 0 0 0 1
1 1 1 1 1 1 0 0 0 0 0 0 0 0 0 0 0 0 0 0 0 0 0 0 0 0 0 0 0 0 0 0 0 0 0 0 2 0 0 0 0 0 0 0 0 0 0
1 1 1 1 1 1 0 0 0 0 0 0 0 0 0 0 0 0 0 0 0 0 0 0 0 0 0 4 0 0 0 0 0 0 0 0 1 0 0 0 0 0 0 0 4 0 45
1 1 1 2 2 1 1 0 0 0 0 0 0 0 0 0 0 0 0 0 0 0 0 0 0 0 0 0 0 0 0 0 0 0 0 0 0 3 17 0 0 0 0 57 64 124 147
1 1 1 1 2 1 1 0 0 0 0 0 0 0 0 0 0 0 0 0 0 0 0 0 0 0 0 0 0 0 0 0 0 0 0 0 0 0 22 13 15 0 0 2 208 330 351
1 1 1 1 1 2 2 0 0 0 0 0 0 0 0 0 0 0 0 0 0 0 0 0 0 0 0 0 0 0 0 0 0 0 0 0 0 0 0 13 1 0 0 0 0 16 347
2 1 1 1 1 2 1 0 0 0 0 0 0 0 0 0 0 0 0 0 0 0 0 0 0 0 0 0 0 0 0 0 0 0 0 0 0 0 0 0 6 1 0 0 11 0 522
1 1 2 3 1 1 1 1 0 0 0 0 0 0 0 0 0 0 0 0 0 0 0 0 0 0 0 0 0 0 0 0 0 0 0 0 0 0 0 0 0 0 0 0 0 0 229
2 1 1 1 1 0 1 1 0 0 0 0 0 0 0 0 0 0 0 0 0 0 0 0 0 0 0 0 0 0 0 0 0 0 0 0 0 0 0 0 0 0 0 0 0 0 56
2 0 0 2 1 1 0 1 0 0 0 0 0 0 0 0 0 0 0 0 0 0 0 0 0 0 0 0 0 0 0 0 0 0 0 0 0 0 0 0 0 0 0 0 0 0 21
CIN
-0 -0 -0 -0 -0 -0 -0 -0 -0 -0 -0 -0 -0 -0 -0 -0 -0 -0 -0 -0 -0 -0 -0 -0 -0 -0 -0 -0 -0 -0 -0 -0 -0 -0 -0 -0 -0 -0 -0 -0 -0 -40 -37 -36 -24 -5 -0
-0 -0 -0 -0 -0 -0 -0 -0 -0 -0 -0 -0 -0 -0 -0 -0 -0 -0 -0 -0 -0 -0 -0 -0 -0 -0 -0 -0 -0 -0 -0 -0 -0 -0 -0 -0 -0 -0 -0 -0 -96 -141 -23 -40 -12 -7 -1
-0 -0 -0 -0 -0 -0 -0 -0 -0 -0 -0 -0 -0 -0 -0 -0 -0 -0 -0 -0 -0 -0 -0 -0 -0 -0 -0 -0 -0 -0 -0 -0 -0 -0 -0 -0 -0 -0 -0 -0 -4 -43 -39 -9 -4 -9 -1
-0 -0 -0 -0 -0 -0 -0 -0 -0 -0 -0 -0 -1 -0 -0 -0 -0 -0 -0 -0 -0 -0 -0 -0 -0 -0 -0 -0 -0 -0 -0 -0 -0 -0 -0 -0 -0 -0 -0 -0 -0 -46 -52 -24 -4 -5 -5
-0 -0 -0 -0 -0 -0 -0 -0 -0 -0 -0 -0 -0 -0 -0 -0 -0 -0 -0 -0 -0 -0 -0 -0 -0 -0 -0 -0 -0 -0 -0 -0 -0 -0 -0 -0 -0 -0 -0 -0 -51 -94 -65 -29 -9 -13 -15
-0 -1 -0 -0 -0 -0 -0 -0 -0 -0 -0 -0 -0 -0 -0 -0 -0 -0 -0 -0 -0 -0 -0 -0 -0 -0 -0 -0 -0 -0 -0 -0 -0 -0 -0 -0 -0 -0 -0 -0 -0 -0 -74 -26 -44 -23 -5
-3 -3 -1 -0 -0 -0 -0 -0 -0 -0 -0 -0 -0 -0 -0 -0 -0 -0 -0 -0 -0 -0 -0 -0 -0 -0 -0 -0 -0 -0 -0 -0 -0 -0 -0 -0 -0 -0 -0 -0 -0 -0 -0 -66 -16 -25 -7
-5 -0 -0 -0 -0 -0 -0 -0 -0 -0 -0 -0 -0 -0 -0 -0 -0 -0 -0 -0 -0 -0 -0 -0 -0 -0 -0 -0 -0 -0 -0 -0 -0 -0 -0 -0 -0 -0 -0 -0 -0 -63 -50 -59 -66 -52 -38
-0 -0 -0 -0 -0 -0 -0 -0 -0 -0 -0 -0 -0 -0 -0 -0 -0 -0 -0 -0 -0 -0 -0 -0 -0 -0 -0 -0 -0 -0 -0 -0 -0 -0 -0 -0 -0 -0 -0 -0 -0 -0 -0 -42 -30 -49 -29
-0 -0 -0 -0 -0 -0 -0 -0 -0 -0 -0 -0 -0 -0 -0 -0 -0 -0 -0 -0 -0 -0 -0 -0 -0 -0 -0 -0 -0 -0 -0 -0 -0 -0 -0 -0 -0 -0 -0 -0 -0 -0 -0 -36 -49 -50 -18
-0 -0 -0 -0 -0 -0 -0 -0 -0 -0 -0 -0 -0 -0 -0 -0 -0 -0 -0 -0 -0 -0 -0 -0 -0 -0 -0 -0 -0 -0 -0 -0 -0 -0 -0 -0 -0 -0 -0 -0 -0 -0 -0 -22 -31 -28 -29
-0 -0 -0 -0 -0 -0 -0 -0 -0 -0 -0 -0 -0 -0 -0 -0 -0 -0 -0 -0 -0 -0 -0 -0 -0 -0 -0 -0 -0 -0 -0 -0 -0 -0 -0 -0 -0 -0 -0 -0 -0 -26 -45 -56 -54 -42 -0
-0 -0 -0 -0 -0 -0 -0 -0 -0 -0 -0 -0 -0 -0 -0 -0 -0 -0 -0 -0 -0 -0 -0 -0 -0 -0 -0 -0 -0 -0 -0 -0 -0 -0 -0 -0 -0 -0 -0 -0 -0 -0 -17 -0 -0 -0 -0
-0 -0 -0 -0 -0 -0 -0 -0 -0 -0 -0 -0 -0 -0 -0 -0 -0 -0 -0 -0 -0 -0 -0 -0 -0 -0 -0 -0 -0 -0 -0 -0 -0 -0 -0 -0 -0 -0 -0 -0 -0 -0 -0 -4 -0 -0 -0
-0 -0 -0 -0 -0 -0 -0 -0 -0 -0 -0 -0 -0 -0 -0 -0 -0 -0 -0 -0 -0 -0 -0 -0 -0 -0 -0 -0 -0 -0 -0 -0 -0 -0 -0 -0 -0 -0 -0 -0 -0 -0 -0 -0 -12 -0 -34
-1 -1 -0 -1 -0 -0 -0 -0 -0 -0 -0 -0 -0 -0 -0 -0 -0 -0 -0 -0 -0 -0 -0 -0 -0 -0 -0 -0 -0 -0 -0 -0 -0 -0 -0 -0 -0 -0 -0 -0 -0 -0 -0 -0 -0 -1 -0
-1 -1 -0 -1 -0 -0 -0 -0 -0 -0 -0 -0 -0 -0 -0 -0 -0 -0 -0 -0 -0 -0 -0 -0 -0 -0 -0 -16 -79 -52 -0 -0 -0 -0 -0 -0 -0 -0 -0 -0 -0 -0 -0 -0 -0 -0 -2
-0 -1 -0 -1 -0 -0 -0 -0 -0 -0 -0 -0 -0 -0 -0 -0 -0 -0 -0 -0 -0 -0 -0 -0 -0 -0 -0 -0 -69 -59 -3 -0 -0 -0 -0 -0 -0 -0 -0 -0 -0 -0 -0 -0 -0 -0 -0
-0 -0 -0 -1 -0 -0 -0 -0 -0 -0 -0 -0 -0 -0 -0 -0 -0 -0 -0 -0 -0 -0 -0 -0 -0 -0 -0 -0 -19 -74 -100 -122 -121 -0 -0 -0 -0 -0 -0 -0 -0 -0 -0 -0 -0 -0 -0
-0 -0 -0 -0 -0 -0 -0 -0 -0 -0 -0 -0 -0 -0 -0 -0 -0 -0 -0 -0 -0 -0 -0 -0 -0 -0 -0 -0 -0 -82 -66 -108 -0 -0 -0 -0 -0 -0 -0 -3 -0 -0 -0 -0 -0 -0 -5
-0 -0 -0 -0 -0 -0 -0 -0 -0 -0 -0 -0 -0 -0 -0 -0 -0 -0 -0 -0 -0 -0 -0 -0 -0 -0 -0 -0 -0 -0 -0 -0 -0 -0 -0 -0 -36 -0 -0 -0 -0 -0 -0 -0 -0 -0 -0
-0 -0 -0 -0 -0 -0 -0 -0 -0 -0 -0 -0 -0 -0 -0 -0 -0 -0 -0 -0 -0 -0 -0 -0 -0 -0 -0 -15 -0 -0 -0 -0 -0 -0 -0 -0 -25 -0 -0 -0 -0 -0 -0 -2 -125 -0 -59
-0 -0 -0 -0 -0 -1 -0 -0 -0 -0 -0 -0 -0 -0 -0 -0 -0 -0 -0 -0 -0 -0 -0 -0 -0 -0 -0 -0 -0 -0 -0 -0 -0 -0 -0 -0 -66 -69 -26 -0 -0 -0 -0 -140 -178 -169 -118
-0 -0 -0 -0 -0 -0 -0 -0 -0 -0 -0 -0 -0 -0 -0 -0 -0 -0 -0 -0 -0 -0 -0 -0 -0 -0 -0 -0 -0 -0 -0 -0 -0 -0 -0 -0 -0 -0 -54 -59 -12 -2 -0 -38 -138 -154 -174
-0 -0 -0 -0 -0 -0 -0 -0 -0 -0 -0 -0 -0 -0 -0 -0 -0 -0 -0 -0 -0 -0 -0 -0 -0 -0 -0 -0 -0 -0 -0 -0 -0 -0 -0 -0 -0 -0 -0 -38 -1 -0 -0 -0 -0 -23 -158
-0 -1 -1 -0 -0 -0 -0 -0 -0 -0 -0 -0 -0 -0 -0 -0 -0 -0 -0 -0 -0 -0 -0 -0 -0 -0 -0 -0 -0 -0 -0 -0 -0 -0 -0 -0 -0 -0 -0 -0 -4 -3 -0 -0 -129 -0 -90
-1 -1 -1 -1 -0 -0 -0 -0 -0 -0 -0 -0 -0 -0 -0 -0 -0 -0 -0 -0 -0 -0 -0 -0 -0 -0 -0 -0 -0 -0 -0 -0 -0 -0 -0 -0 -0 -0 -0 -0 -0 -0 -0 -0 -0 -2 -88
-0 -0 -0 -1 -1 -0 -0 -0 -0 -0 -0 -0 -0 -0 -0 -0 -0 -0 -0 -0 -0 -0 -0 -0 -0 -0 -0 -0 -0 -0 -0 -0 -0 -0 -0 -0 -0 -0 -0 -0 -0 -0 -0 -0 -0 -0 -152
-0 -1 -0 -0 -4 -0 -0 -0 -0 -0 -0 -0 -0 -0 -0 -0 -0 -0 -0 -0 -0 -0 -0 -0 -0 -0 -0 -0 -0 -0 -0 -0 -0 -0 -0 -0 -0 -0 -0 -0 -0 -0 -0 -0 -0 -0 -275
Wind_Speed
28 30 31 26 25 21 22 22 23 24 25 25 24 23 22 21 21 22 22 21 22 21 21 21 21 21 17 16 17 16 9 1 4 3 8 7 5 11 12 15 13 14 12 22 24 31 30
33 31 28 28 27 26 24 24 25 26 26 26 25 25 24 23 23 24 24 23 22 21 19 19 17 18 15 19 17 19 8 3 4 5 5 6 13 16 12 17 16 11 9 13 9 34 4
35 32 30 29 29 27 26 26 26 26 27 27 27 25 24 23 24 24 25 24 23 21 18 16 15 14 16 17 17 11 6 8 7 9 8 15 19 18 14 15 15 10 10 8 1 14 7
36 34 32 29 29 29 28 26 26 27 28 28 28 26 24 23 23 24 25 24 22 20 17 15 13 14 15 16 15 9 7 10 11 11 13 16 18 17 18 16 14 17 16 18 10 8 11
37 36 34 32 30 29 29 28 27 27 27 28 27 26 24 23 23 24 25 24 19 17 16 13 13 14 13 14 14 12 9 10 13 15 15 17 17 19 19 16 17 18 21 20 12 14 13
36 37 36 33 32 30 30 28 26 26 26 26 26 26 25 24 24 24 25 19 18 16 15 15 16 13 13 11 10 9 12 8 13 12 11 14 17 22 22 22 25 24 23 19 15 17 16
37 36 36 35 33 30 29 29 26 25 25 25 26 26 25 25 23 22 20 18 21 19 19 17 17 17 14 12 7 13 10 11 13 13 18 17 20 24 25 24 18 19 19 19 15 18 13
38 37 34 35 34 31 29 28 26 24 24 25 26 26 25 25 22 18 17 19 19 19 21 19 18 20 20 16 12 11 12 15 16 18 15 18 27 22 23 23 18 15 17 18 14 14 13
38 38 35 34 34 31 28 27 26 25 24 24 26 26 26 25 21 15 16 17 17 19 17 16 13 14 13 10 12 14 12 13 18 20 20 21 22 19 22 24 22 19 18 17 19 12 8
39 38 36 33 32 32 29 26 26 25 24 25 26 26 27 25 16 16 16 16 16 16 15 14 11 11 10 13 12 13 14 14 18 23 19 23 17 20 23 26 24 25 18 14 7 13 20
39 38 36 34 33 31 28 26 25 24 23 23 26 27 23 16 14 14 16 19 16 15 13 16 12 12 12 14 5 15 17 17 20 22 22 21 21 21 23 23 22 23 17 14 12 14 17
39 38 36 34 33 30 27 25 24 22 20 18 23 19 19 14 13 12 15 17 15 15 13 13 13 14 10 13 12 9 14 16 15 18 23 19 19 20 25 23 18 15 14 12 16 19 28
39 38 37 35 32 29 27 25 23 21 16 5 8 2 11 13 15 15 16 15 6 14 14 14 13 13 10 11 9 10 15 16 18 22 26 25 23 22 20 21 19 21 22 27 30 29 29
39 38 37 35 31 27 26 24 22 19 9 14 16 7 16 16 16 16 15 16 15 14 13 14 13 12 12 14 13 14 14 17 18 17 22 29 33 27 22 25 23 24 26 29 35 31 25
39 37 37 35 31 27 27 25 22 17 12 17 5 19 19 16 14 14 17 17 16 13 14 15 12 12 13 13 15 15 16 17 20 21 22 24 27 23 26 24 24 27 35 27 22 22 25
37 36 36 33 30 27 29 26 22 8 18 17 19 19 19 20 19 15 20 20 19 17 15 14 12 14 13 15 14 14 15 17 16 18 20 20 25 21 21 22 24 25 24 33 30 33 34
36 35 34 32 29 28 30 27 21 12 22 16 18 18 12 17 14 18 20 20 20 17 16 16 14 12 12 13 14 15 16 15 17 17 15 19 22 20 20 25 26 25 27 28 29 28 33
34 34 31 29 28 28 29 27 19 21 23 18 17 18 16 14 20 21 20 19 17 18 19 17 15 13 13 14 15 16 15 17 16 15 19 18 20 27 23 18 23 24 27 25 34 33 28
32 31 29 27 26 28 26 26 19 27 22 16 16 17 16 16 19 19 18 18 17 18 19 18 17 15 13 15 16 16 16 14 15 17 18 18 21 25 24 21 19 24 24 26 25 25 32
30 30 28 25 26 27 26 25 18 27 20 8 15 15 15 16 17 17 16 17 17 16 16 12 16 15 13 15 15 16 17 15 17 18 17 19 23 25 30 25 22 25 25 24 27 32 29
30 29 27 25 25 27 26 26 13 22 17 12 14 14 14 15 16 16 17 17 16 15 15 20 17 16 15 12 14 17 18 18 16 19 18 20 24 22 21 21 16 20 25 25 27 26 30
29 28 27 25 25 26 24 26 7 24 18 15 13 13 13 13 14 16 17 18 18 16 16 15 16 17 16 13 12 15 17 17 17 19 16 18 21 21 20 19 20 21 19 21 23 24 26
29 27 26 26 25 23 22 26 28 25 19 15 14 12 10 11 12 14 16 16 18 17 17 15 14 15 15 14 14 16 17 16 17 17 15 17 18 21 24 22 24 26 23 22 24 23 23
27 26 23 24 23 21 21 25 26 24 21 14 13 11 10 9 10 12 14 16 16 18 18 18 14 12 15 16 11 12 16 13 13 14 16 17 17 19 25 25 32 22 19 19 21 22 24
24 24 21 22 21 20 20 23 25 22 21 14 13 10 9 9 9 10 12 14 15 16 17 19 18 14 18 14 12 13 12 15 16 16 16 15 18 21 22 26 25 23 23 22 23 25 23
25 21 21 21 21 19 18 20 23 21 21 14 13 11 10 8 9 9 11 13 14 14 15 16 17 17 15 13 12 14 16 16 17 17 16 16 14 17 23 25 30 22 22 23 24 25 19
19 19 20 19 21 17 17 19 21 19 19 15 12 15 12 9 9 10 12 13 14 14 14 15 17 15 16 14 14 15 15 16 16 17 18 18 17 21 19 22 24 21 26 20 24 22 21
19 19 18 17 17 15 17 18 20 19 19 16 11 15 11 9 9 10 12 13 14 13 14 13 14 16 15 15 14 13 14 13 15 17 18 20 20 20 20 22 23 21 19 23 24 23 22
20 17 15 17 14 15 16 19 20 18 18 16 9 14 13 10 9 12 14 15 16 14 14 13 14 15 15 14 13 13 14 13 13 14 17 19 18 18 18 18 18 19 19 22 24 26 23
Wind_Direction
336 344 16 32 32 35 33 30 26 23 20 21 21 20 20 21 14 4 357 348 336 329 318 307 292 287 285 282 277 286 309 117 129 163 158 231 215 262 267 261 270 279 298 164 199 183 180
353 19 26 24 25 24 25 22 19 18 17 16 17 17 17 16 11 2 354 349 338 332 327 312 305 291 286 269 280 281 274 197 173 231 216 222 245 254 270 251 256 287 319 217 115 171 203
8 17 20 20 18 19 18 16 15 16 15 14 13 14 15 15 8 360 350 343 333 329 326 323 309 301 282 272 280 290 266 239 220 244 233 243 238 249 255 254 265 268 277 336 55 107 239
7 10 13 15 16 15 15 14 14 13 12 11 11 13 13 12 9 359 348 341 335 330 331 325 317 301 282 278 277 269 265 239 236 251 251 249 244 249 247 255 261 245 249 227 260 241 243
2 5 6 8 10 11 12 11 12 13 12 12 11 13 13 9 3 352 343 334 348 352 343 335 314 296 285 283 262 252 257 240 234 246 255 245 250 248 245 244 245 243 236 232 248 254 247
3 1 2 6 7 10 10 11 14 13 13 14 13 11 9 6 357 350 340 356 6 360 346 327 302 293 285 283 262 248 255 237 245 240 252 243 248 241 239 238 238 235 228 238 257 248 240
360 1 1 3 6 9 11 13 14 14 15 14 12 9 6 4 357 357 3 9 346 329 321 299 294 287 282 285 261 250 254 248 246 236 240 238 239 235 236 241 254 248 253 243 262 241 253
357 359 5 4 7 10 13 14 14 16 14 12 9 6 5 1 1 8 17 359 354 349 303 307 289 272 263 267 259 250 242 250 238 229 238 237 236 241 242 241 245 251 249 246 258 267 276
360 359 5 8 9 12 15 15 15 13 13 12 6 4 359 355 3 34 19 17 20 1 320 311 308 279 274 264 258 243 237 253 237 234 235 235 246 242 242 238 241 249 255 252 251 263 291
359 2 7 11 13 13 16 18 16 14 13 10 4 2 354 349 28 27 20 30 25 21 312 316 312 293 286 264 263 249 241 249 245 236 238 242 254 235 240 238 242 242 257 264 252 257 246
2 5 9 13 14 16 20 21 19 19 17 14 4 357 2 21 30 42 34 15 36 22 316 295 309 293 280 271 274 244 244 252 246 237 239 245 235 235 237 242 247 251 250 258 255 272 259
6 9 12 14 16 19 22 23 22 22 23 24 11 19 14 38 50 78 37 21 35 308 313 306 298 286 281 281 273 249 244 260 260 242 241 246 247 248 245 248 253 257 237 261 266 266 247
7 9 12 15 18 22 23 24 25 25 28 355 279 209 76 63 65 59 40 57 324 316 292 293 288 289 286 279 281 260 249 252 252 240 237 242 246 249 251 246 248 246 235 244 245 247 247
8 11 14 16 19 23 25 25 27 30 24 290 283 135 86 93 67 55 74 65 343 327 298 294 295 296 288 279 275 271 260 251 254 254 243 240 241 246 248 246 245 240 242 246 243 249 258
7 10 13 17 21 25 24 25 28 32 298 295 224 76 69 78 109 112 71 27 39 17 282 277 304 306 297 291 277 274 267 260 255 254 251 246 248 257 249 249 244 244 241 253 262 265 258
8 11 13 19 23 26 22 25 30 18 301 294 62 63 42 55 90 103 52 55 87 110 54 35 335 317 300 294 285 277 273 264 263 266 261 258 251 258 249 247 249 251 249 243 251 248 251
6 9 13 19 23 24 20 25 32 304 307 296 62 57 286 98 118 72 52 60 72 96 91 41 18 2 341 321 289 280 276 271 272 266 268 258 255 253 254 246 244 245 251 249 251 256 251
9 9 14 19 23 23 22 25 36 310 311 41 63 58 97 137 62 75 62 79 101 83 60 51 35 7 337 313 293 281 274 274 277 272 262 265 260 249 254 258 255 252 251 248 246 248 259
9 9 14 18 22 21 24 26 39 324 326 55 59 54 78 115 65 69 77 70 94 72 59 52 43 46 352 311 291 283 280 289 285 269 265 265 262 250 251 258 259 250 254 254 258 260 253
8 9 12 17 19 19 25 28 44 328 310 6 70 61 32 21 48 62 60 55 54 90 81 62 39 54 43 303 305 288 280 288 286 287 281 271 262 257 250 256 256 251 255 255 254 254 258
6 7 11 15 16 16 23 25 53 316 302 87 57 59 47 55 18 47 52 50 42 55 70 341 20 23 45 339 313 286 284 279 290 294 283 270 259 258 262 260 261 260 257 254 253 262 258
2 3 6 10 11 14 22 21 70 323 310 71 78 72 41 21 2 25 24 31 36 56 52 63 5 353 3 14 317 292 284 285 281 283 287 278 261 259 256 260 257 260 269 259 259 264 267
358 359 2 4 6 12 21 12 350 336 344 34 75 336 6 5 352 3 4 19 27 61 66 74 32 343 21 4 314 288 296 300 291 287 291 281 267 261 251 262 258 255 266 267 263 266 268
356 356 0 358 4 9 14 3 349 357 350 25 45 27 36 59 4 360 17 22 40 51 58 50 75 29 334 280 3 302 313 315 320 308 286 270 274 270 259 260 249 259 274 278 271 271 272
354 355 359 356 2 6 9 357 343 353 354 354 19 43 41 64 9 9 21 21 25 38 42 25 41 99 265 317 346 309 316 273 286 283 302 299 281 265 264 258 264 263 269 272 276 273 280
350 355 356 353 354 3 4 355 342 352 356 346 7 4 343 73 100 358 3 13 16 28 38 41 22 31 86 67 346 309 301 299 288 287 313 303 298 279 262 262 255 267 273 281 276 271 288
351 352 352 352 349 1 359 352 337 353 344 352 23 308 319 30 330 343 349 5 12 18 28 36 4 18 352 339 322 321 315 310 304 300 293 297 290 266 269 264 269 279 277 280 267 268 285
345 345 349 352 352 358 349 343 327 340 327 328 41 298 322 34 346 353 359 12 359 21 19 36 31 348 351 342 360 10 350 351 330 311 302 289 284 279 280 267 267 294 283 270 276 282 283
341 344 351 347 351 349 342 322 313 321 332 325 8 307 294 323 356 320 321 322 336 7 33 28 359 355 356 12 29 28 1 1 355 338 309 294 293 290 285 281 289 298 295 291 286 279 282